Météo par heure à Kiti

Ce jour, 5 Mars, Vendredi

Heure Température Précipitation Vent Pression Humidité
00:00 +10°C° 0 mm 3 m/s 762 mmHg 57%
01:00 +10°C° 0 mm 3 m/s 762 mmHg 56%
02:00 +9°C° 0 mm 3 m/s 762 mmHg 56%
03:00 +9°C° 0 mm 2 m/s 762 mmHg 58%
04:00 +8°C° 0 mm 2 m/s 762 mmHg 60%
05:00 +9°C° 0 mm 1 m/s 762 mmHg 63%
06:00 +11°C° 0 mm 1 m/s 762 mmHg 57%
07:00 +13°C° 0 mm 2 m/s 763 mmHg 52%
08:00 +15°C° 0 mm 2 m/s 763 mmHg 46%
09:00 +17°C° 0 mm 3 m/s 763 mmHg 42%
10:00 +18°C° 0 mm 4 m/s 764 mmHg 39%
11:00 +20°C° 0 mm 5 m/s 764 mmHg 35%
12:00 +20°C° 0 mm 5 m/s 764 mmHg 35%
13:00 +21°C° 0 mm 5 m/s 764 mmHg 36%
14:00 +21°C° 0 mm 5 m/s 763 mmHg 37%
15:00 +20°C° 0 mm 6 m/s 764 mmHg 47%
16:00 +19°C° 0 mm 6 m/s 764 mmHg 57%
17:00 +17°C° 0 mm 6 m/s 764 mmHg 66%
18:00 +15°C° 0 mm 5 m/s 764 mmHg 73%
19:00 +13°C° 0 mm 4 m/s 765 mmHg 80%
20:00 +11°C° 0 mm 3 m/s 765 mmHg 87%
21:00 +11°C° 0 mm 3 m/s 765 mmHg 88%
22:00 +10°C° 0 mm 2 m/s 765 mmHg 88%
23:00 +10°C° 0 mm 2 m/s 766 mmHg 89%

Demain, 6 Mars, Samedi

Heure Température Précipitation Vent Pression Humidité
00:00 +10°C° 0 mm 2 m/s 765 mmHg 89%
01:00 +10°C° 0 mm 1 m/s 765 mmHg 89%
02:00 +10°C° 0 mm 1 m/s 765 mmHg 89%
03:00 +10°C° 0 mm 1 m/s 765 mmHg 89%
04:00 +10°C° 0 mm 1 m/s 765 mmHg 90%
05:00 +10°C° 0 mm 1 m/s 765 mmHg 90%
06:00 +11°C° 0 mm 1 m/s 765 mmHg 84%
07:00 +13°C° 0 mm 1 m/s 766 mmHg 78%
08:00 +15°C° 0 mm 1 m/s 766 mmHg 72%
09:00 +16°C° 0 mm 1 m/s 766 mmHg 66%
10:00 +18°C° 0 mm 1 m/s 766 mmHg 60%
11:00 +20°C° 0 mm 1 m/s 766 mmHg 55%
12:00 +19°C° 0 mm 2 m/s 765 mmHg 53%
13:00 +20°C° 0 mm 2 m/s 765 mmHg 52%
14:00 +20°C° 0 mm 2 m/s 764 mmHg 50%
15:00 +19°C° 0 mm 2 m/s 764 mmHg 56%
16:00 +18°C° 0 mm 3 m/s 764 mmHg 62%
17:00 +17°C° 0 mm 3 m/s 764 mmHg 68%
18:00 +16°C° 0 mm 3 m/s 764 mmHg 71%
19:00 +15°C° 0 mm 2 m/s 764 mmHg 74%
20:00 +14°C° 0 mm 2 m/s 764 mmHg 77%
21:00 +13°C° 0 mm 2 m/s 764 mmHg 79%
22:00 +13°C° 0 mm 2 m/s 764 mmHg 81%
23:00 +12°C° 0 mm 2 m/s 763 mmHg 83%

Après-demain, 7 Mars, Dimanche

Heure Température Précipitation Vent Pression Humidité
00:00 +12°C° 0 mm 2 m/s 763 mmHg 83%
01:00 +12°C° 0 mm 2 m/s 763 mmHg 83%
02:00 +12°C° 0 mm 2 m/s 762 mmHg 82%
03:00 +12°C° 0 mm 2 m/s 762 mmHg 81%
04:00 +10°C° 0 mm 2 m/s 762 mmHg 79%
05:00 +10°C° 0 mm 2 m/s 762 mmHg 78%
06:00 +13°C° 0 mm 2 m/s 762 mmHg 72%
07:00 +14°C° 0 mm 2 m/s 762 mmHg 67%
08:00 +16°C° 0 mm 2 m/s 762 mmHg 61%
09:00 +17°C° 0 mm 2 m/s 762 mmHg 58%
10:00 +18°C° 0 mm 2 m/s 762 mmHg 54%
11:00 +20°C° 0 mm 3 m/s 762 mmHg 51%
12:00 +20°C° 0 mm 3 m/s 761 mmHg 53%
13:00 +20°C° 0 mm 4 m/s 761 mmHg 55%
14:00 +20°C° 0 mm 4 m/s 760 mmHg 56%
15:00 +19°C° 0 mm 4 m/s 760 mmHg 60%
16:00 +18°C° 0 mm 3 m/s 760 mmHg 63%
17:00 +18°C° 0 mm 3 m/s 760 mmHg 67%
18:00 +16°C° 0 mm 3 m/s 760 mmHg 74%
19:00 +13°C° 0 mm 3 m/s 760 mmHg 80%
20:00 +12°C° 0 mm 3 m/s 760 mmHg 87%
21:00 +12°C° 0 mm 3 m/s 760 mmHg 86%
22:00 +12°C° 0 mm 3 m/s 760 mmHg 86%
23:00 +12°C° 0 mm 3 m/s 760 mmHg 85%

8 Mars, Lundi

Heure Température Précipitation Vent Pression Humidité
00:00 +12°C° 0 mm 3 m/s 760 mmHg 85%
01:00 +11°C° 0 mm 3 m/s 759 mmHg 86%
02:00 +11°C° 0 mm 3 m/s 759 mmHg 86%
03:00 +10°C° 0 mm 2 m/s 759 mmHg 86%
04:00 +10°C° 0 mm 2 m/s 759 mmHg 86%
05:00 +10°C° 0 mm 1 m/s 759 mmHg 86%
06:00 +12°C° 0 mm 1 m/s 759 mmHg 80%
07:00 +14°C° 0 mm 1 m/s 759 mmHg 74%
08:00 +16°C° 0 mm 1 m/s 759 mmHg 67%
09:00 +17°C° 0 mm 2 m/s 759 mmHg 63%
10:00 +18°C° 0 mm 3 m/s 759 mmHg 58%
11:00 +20°C° 0 mm 4 m/s 760 mmHg 53%
12:00 +20°C° 0 mm 5 m/s 759 mmHg 51%
13:00 +21°C° 0 mm 6 m/s 759 mmHg 49%
14:00 +21°C° 0 mm 7 m/s 759 mmHg 47%
15:00 +20°C° 0 mm 7 m/s 759 mmHg 51%
16:00 +18°C° 0 mm 7 m/s 758 mmHg 55%
17:00 +17°C° 0 mm 6 m/s 758 mmHg 59%
18:00 +15°C° 0 mm 5 m/s 759 mmHg 67%
19:00 +14°C° 0 mm 4 m/s 759 mmHg 75%
20:00 +12°C° 0 mm 3 m/s 759 mmHg 83%
21:00 +13°C° 0 mm 2 m/s 759 mmHg 81%
22:00 +12°C° 0 mm 2 m/s 759 mmHg 79%
23:00 +12°C° 0 mm 1 m/s 759 mmHg 78%

9 Mars, Mardi

Heure Température Précipitation Vent Pression Humidité
00:00 +11°C° 0 mm 1 m/s 759 mmHg 79%
01:00 +11°C° 0 mm 1 m/s 759 mmHg 79%
02:00 +11°C° 0 mm 1 m/s 759 mmHg 80%
03:00 +10°C° 0 mm 2 m/s 759 mmHg 81%
04:00 +9°C° 0 mm 2 m/s 759 mmHg 82%
05:00 +9°C° 0 mm 2 m/s 759 mmHg 83%
06:00 +12°C° 0 mm 2 m/s 759 mmHg 76%
07:00 +14°C° 0 mm 1 m/s 760 mmHg 70%
08:00 +16°C° 0 mm 1 m/s 760 mmHg 64%
09:00 +18°C° 0 mm 1 m/s 760 mmHg 60%
10:00 +18°C° 0 mm 2 m/s 760 mmHg 57%
11:00 +19°C° 0 mm 2 m/s 760 mmHg 53%
12:00 +20°C° 0 mm 3 m/s 760 mmHg 52%
13:00 +20°C° 0 mm 4 m/s 760 mmHg 50%
14:00 +20°C° 0 mm 5 m/s 759 mmHg 49%
15:00 +20°C° 0 mm 4 m/s 759 mmHg 54%
16:00 +19°C° 0 mm 3 m/s 759 mmHg 59%
17:00 +18°C° 0 mm 3 m/s 758 mmHg 64%
18:00 +17°C° 0.4 mm 3 m/s 758 mmHg 70%
19:00 +16°C° 0.4 mm 3 m/s 759 mmHg 77%
20:00 +13°C° 0.4 mm 3 m/s 759 mmHg 84%
21:00 +14°C° 0.1 mm 2 m/s 759 mmHg 83%
22:00 +14°C° 0.1 mm 2 m/s 759 mmHg 82%
23:00 +14°C° 0.1 mm 1 m/s 759 mmHg 81%

10 Mars, Mercredi

Heure Température Précipitation Vent Pression Humidité
00:00 +13°C° 0 mm 2 m/s 758 mmHg 82%
01:00 +13°C° 0 mm 2 m/s 758 mmHg 83%
02:00 +13°C° 0 mm 2 m/s 757 mmHg 84%
03:00 +12°C° 0.1 mm 3 m/s 757 mmHg 85%
04:00 +12°C° 0.1 mm 3 m/s 757 mmHg 86%
05:00 +13°C° 0.1 mm 4 m/s 756 mmHg 87%
06:00 +13°C° 0 mm 4 m/s 756 mmHg 84%
07:00 +14°C° 0 mm 4 m/s 756 mmHg 81%
08:00 +15°C° 0 mm 4 m/s 756 mmHg 77%
09:00 +17°C° 0 mm 4 m/s 756 mmHg 74%
10:00 +19°C° 0 mm 5 m/s 756 mmHg 70%
11:00 +20°C° 0 mm 5 m/s 755 mmHg 66%
12:00 +21°C° 0 mm 6 m/s 755 mmHg 63%
13:00 +21°C° 0 mm 6 m/s 754 mmHg 59%
14:00 +22°C° 0 mm 6 m/s 753 mmHg 56%
15:00 +20°C° 0 mm 6 m/s 753 mmHg 60%
16:00 +19°C° 0 mm 5 m/s 752 mmHg 64%
17:00 +18°C° 0 mm 4 m/s 752 mmHg 69%
18:00 +15°C° 0 mm 4 m/s 752 mmHg 76%
19:00 +14°C° 0 mm 3 m/s 752 mmHg 83%
20:00 +13°C° 0 mm 2 m/s 752 mmHg 90%
21:00 +13°C° 0 mm 2 m/s 752 mmHg 87%
22:00 +13°C° 0 mm 2 m/s 752 mmHg 85%
23:00 +14°C° 0 mm 2 m/s 752 mmHg 83%
Voir plus

Nous avons besoin de votre consentement

Meteoprog et ses fournisseurs de services peuvent stocker et accéder à des données personnelles telles que des cookies, des identifiants d'appareils ou d'autres technologies similaires sur votre appareil et traiter ces données pour personnaliser le contenu et les publicités, ainsi que pour fournir des fonctionnalités de médias sociaux et analyser le trafic.

  • Stocker et/ou accéder à des informations sur votre appareil

    Des cookies, des identifiants d'appareils ou d'autres informations peuvent être stockés ou accessibles sur votre appareil aux fins indiquées ci-dessus.

  • Annonces et contenus personnalisés, mesure des annonces et des contenus, connaissance de l'audience et développement de produits

    Les annonces et le contenu peuvent être personnalisés en fonction d'un profil. D'autres données peuvent être ajoutées pour mieux personnaliser les annonces et le contenu. Les performances des publicités et du contenu peuvent être mesurées. Il est possible d'obtenir des informations sur le public qui a vu les publicités et le contenu. Ces données peuvent être utilisées pour développer ou améliorer l'expérience de l'utilisateur, les systèmes et les logiciels.

En cliquant sur "J'accepte", vous autorisez l'utilisation de cookies, des identifiants d'appareils, des balises web ou d'autres technologies similaires. Vos paramètres peuvent être modifiés dans le navigateur de votre appareil.

Dans certains cas, des intérêts légitimes peuvent être invoqués plutôt qu'un consentement. Vous pouvez en savoir plus à ce sujet dans notre Politique de confidentialité et de cookies.